THOR ABLESTAR DEB, 136

Orbit data source: Space-Track

THOR ABLESTAR DEB, 136 is space debris in LEO originally from a launch on Thu, 29 Jun 1961 UTC launched from the Air Force Eastern Test Range (AFETR). Debris objects in space refer to the collection of defunct objects orbiting the Earth. Examples of debris include non-operational satellites, rocket bodies, and fragments generated from explosions, collisions, or faulty payload assembly.

Loading next visibility...
Identifier
136, 1961-015W
Orbit
LEO
Country
Flag of USUS
Related business
Manufacturer
Unknown
Mission
Spacecraft
Bus & Motor
Unknown
Mass
Unknown
Launch date (UTC)
1961-06-29 (65 years ago)
Launch vehicle
Unknown
Launch site
Air Force Eastern Test Range (AFETR)
Object type
Payload
Rocket body
Debris
Shape & HBR
Unknown shape, 0.4 m
Radar Cross Section
Medium (>0.1 m² and <1 m²)

Expand to show TLE details & history
Last TLE update: 12 hours ago

TLE from 12 hours ago
0 THOR ABLESTAR DEB
1   136U 61015W   26199.75690947  .00000606  00000-0  20621-3 0  9993
2   136  67.5266 199.4597 0043877 357.5713   2.5178 14.42200558361316
Epoch: 2026-07-18T18:09Z
TLE epoch observation values (Epoch: 2026-07-18T18:09:56.978Z)
Latitude
0.00002°
Longitude
-9.59279°
Altitude
722.165 km
Speed
7.511 km/s
True Right ascension
13h 17m 50s
True Declination
0° 00' 00"
Sunlit
Object was in daylight at epoch
Visualization orbit readout
Latitude
Unknown
Longitude
Unknown
Altitude
Unknown
Speed
Unknown
Apparent Right ascension
Unknown
Apparent Declination
Unknown
Sunlit
N/A
Visualization observer readout
Local Sidereal Time
18:34:15
Azimuth
Unknown
Elevation
Unknown
Doppler factor
Unknown
Orbital elements
Apogee altitude
780.781 km
Perigee altitude
718.233 km
Semi-major axis
7,127.644 km
Eccentricity
0.00439
Inclination
67.5266°
RAAN
199.4597°
Arg. of periapsis
357.5713°
True anomaly
2.54001°
Mean anomaly
2.5178°
Eccentric anomaly
2.52889°
Mean motion
3.60682 °/min
Orbital period
99.81 mins
BSTAR
0.00020621
Loading maneuver chart data...
Computing Atmospheric mass density...

Documentation

Showing up to 5 results
|